Temp
17 17 17 16 16 15 15 15 16 16 17 16 16 17 17 17 17 17 17 17 17 17 17 17 18 18 17 17 16 16 16 16 16
15 16 16 15 15 15 15 15 15 15 14 14 14 17 17 17 18 18 17 17 17 17 17 17 17 18 18 17 17 17 16 16 16
16 16 16 14 14 14 14 14 14 14 14 14 14 15 15 16 16 17 18 17 17 17 16 17 17 17 17 17 17 17 17 16 16
16 16 16 15 15 15 14 14 13 13 14 14 14 15 15 15 15 16 16 17 17 16 17 16 17 17 17 17 17 17 17 17 17
16 15 15 15 15 14 13 13 13 14 14 14 14 14 14 15 15 15 16 16 16 16 17 17 17 16 17 17 17 16 16 17 17
15 15 14 14 14 13 13 13 13 13 13 13 13 13 13 14 14 15 15 15 15 16 16 16 16 16 16 16 16 15 16 16 17
15 14 14 13 13 13 13 12 12 12 12 12 12 13 13 13 13 14 14 15 15 16 16 15 15 15 15 15 15 15 16 15 15
14 14 13 13 12 12 12 12 12 12 12 12 12 12 12 13 13 14 14 14 14 15 15 15 15 15 15 15 15 15 15 15 15
14 13 12 12 12 12 12 12 12 12 12 12 12 12 12 13 13 13 13 13 13 14 14 15 15 15 15 14 14 14 14 14 14
13 13 12 12 11 11 11 11 11 11 11 12 12 12 12 13 13 13 13 13 13 13 14 14 15 14 14 14 14 14 14 14 14
12 12 12 12 11 11 11 11 11 11 11 12 12 12 12 12 12 13 13 13 13 13 13 14 14 14 14 14 14 14 14 14 14
12 12 12 11 11 11 11 11 11 11 11 12 11 12 12 12 12 12 12 13 13 12 12 13 13 13 14 14 13 13 13 13 14
12 12 11 11 10 10 10 10 10 10 11 11 11 12 12 12 12 12 12 13 13 12 12 13 12 12 13 13 13 13 13 12 13
12 12 11 11 10 10 10 10 10 10 10 11 11 12 12 12 12 12 12 12 13 12 12 12 12 12 12 12 12 12 12 12 12
12 11 11 11 10 10 10 10 10 10 10 11 11 11 11 11 11 12 12 12 12 12 12 12 12 12 12 11 11 11 12 12 12
12 11 11 11 10 10 9 9 10 10 10 10 11 11 11 11 11 11 11 11 11 12 12 12 11 11 11 11 10 10 11 11 11
12 12 11 11 10 10 10 9 9 9 9 9 7 6 9 11 10 10 10 11 11 11 11 11 11 11 11 10 10 10 10 11 11
12 12 11 11 10 10 10 9 9 9 9 9 9 6 6 7 10 10 10 10 10 10 10 10 11 11 11 10 10 10 9 10 10
11 11 11 11 10 10 10 9 9 9 9 9 9 9 9 6 6 9 10 9 10 10 11 10 10 10 10 10 9 9 9 9 10
11 11 11 11 11 10 10 9 9 9 8 9 9 9 9 9 9 8 8 9 9 9 10 10 9 9 9 9 9 9 8 8 9
Height
841 840 839 838 837 836 835 833 832 831 829 828 827 826 825 824 823 823 823 822 822 822 821 821 820 820 820 820 821 821 820 820 820
841 840 839 838 837 836 835 833 832 830 829 828 826 824 823 822 821 820 820 820 820 819 819 819 818 818 817 818 818 818 818 818 819
841 840 839 838 837 836 834 833 831 829 828 826 825 823 822 820 819 818 817 817 817 816 816 816 815 815 815 814 815 815 816 816 816
841 840 839 837 836 835 833 832 830 828 826 825 823 822 820 819 818 816 815 815 815 815 813 813 813 812 812 812 813 813 813 813 814
841 839 838 837 835 834 832 831 829 827 825 823 821 820 818 817 816 815 814 814 814 813 812 810 810 809 809 808 809 810 810 811 811
840 839 838 836 835 833 831 829 827 826 824 822 820 818 816 815 814 813 813 812 813 812 811 808 807 807 807 807 806 808 808 807 807
840 839 837 837 835 833 831 829 827 825 823 821 819 817 815 814 812 812 811 810 810 810 810 808 807 807 807 807 807 805 805 805 805
840 839 837 836 835 833 830 829 827 825 823 820 818 816 814 813 812 811 810 809 809 808 807 807 807 807 806 805 805 805 804 803 803
840 838 837 836 834 833 831 828 827 825 823 820 817 815 813 812 811 810 809 808 807 807 806 806 806 805 805 804 804 803 802 802 801
841 839 837 836 835 833 830 828 826 824 822 819 816 814 813 812 811 810 809 808 807 806 806 806 805 805 804 802 802 802 801 801 800
841 839 838 836 835 833 831 828 826 823 820 817 815 814 813 812 811 811 810 809 807 806 806 806 805 805 804 802 800 800 800 800 800
841 839 838 836 835 833 831 829 826 823 820 816 814 813 814 813 813 812 811 810 808 807 807 806 806 805 804 803 800 800 800 800 800
841 840 838 837 835 833 831 828 826 823 819 817 815 815 815 815 814 813 813 811 810 809 808 807 806 805 804 803 802 801 800 800 799
841 840 838 837 835 833 831 829 827 823 820 818 817 817 817 816 816 814 813 812 811 810 810 809 808 806 805 804 803 802 802 801 798
841 840 838 836 835 833 831 829 827 824 821 819 819 819 819 819 818 816 814 813 812 811 810 810 809 808 807 806 805 805 803 802 799
840 839 838 836 835 833 831 829 826 824 822 820 820 820 820 820 819 818 816 815 814 812 811 811 811 810 809 807 806 805 804 802 799
838 837 836 836 834 833 831 829 827 827 825 824 822 823 821 820 819 819 817 816 815 813 812 812 811 811 810 809 807 805 804 802 799
836 835 835 834 833 832 831 829 828 828 827 826 825 827 829 823 819 819 818 817 816 814 813 811 810 810 810 810 808 806 804 802 799
834 834 833 832 832 831 831 829 829 829 829 828 828 827 827 827 825 819 818 817 816 814 813 812 811 809 809 808 807 806 803 801 799
833 832 831 831 830 830 830 829 828 828 829 828 828 827 826 824 825 822 819 816 815 815 811 811 810 810 809 808 806 804 802 800 798
Wind_Speed
10 10 11 11 12 12 12 13 13 13 13 13 14 15 16 15 13 13 11 12 12 12 13 14 14 11 10 11 11 10 9 8 8
10 10 11 11 12 13 13 13 13 13 13 13 14 15 15 15 15 15 15 14 13 14 14 16 16 16 12 12 13 13 13 11 11
10 11 11 11 11 12 13 12 12 13 13 13 14 14 14 14 14 15 16 15 16 16 16 17 17 19 16 14 14 14 15 14 14
10 11 11 12 12 13 12 12 12 13 14 15 16 16 15 15 14 14 12 11 12 14 17 16 16 16 19 18 15 14 15 15 17
11 12 12 13 13 13 13 13 14 15 16 16 16 16 16 15 14 11 9 9 11 12 14 13 13 14 15 15 14 12 13 15 15
12 13 13 13 12 12 13 13 14 15 15 14 14 15 14 13 11 10 9 9 10 10 13 7 7 8 6 7 3 5 6 7 7
13 13 13 12 13 13 13 14 14 14 15 15 14 14 13 12 11 10 10 11 10 9 7 7 5 5 5 6 7 9 10 9 9
13 14 13 13 14 14 14 14 14 15 16 16 15 14 12 12 12 11 9 9 9 9 8 7 6 6 7 7 8 9 9 8 8
14 14 14 14 15 14 15 15 15 15 16 16 15 13 13 11 11 9 7 9 9 9 9 8 7 6 6 7 9 9 8 9 9
13 14 13 13 14 15 15 16 16 18 19 17 15 14 11 9 8 8 8 8 8 9 8 7 5 5 5 6 7 6 5 7 7
13 13 13 13 14 14 14 16 18 20 20 18 13 9 10 8 8 8 8 8 8 8 8 7 6 6 6 5 4 3 5 5 6
13 13 13 13 13 12 13 14 17 19 20 16 12 6 7 9 9 10 10 9 9 8 8 8 7 7 6 5 6 7 9 9 10
13 12 12 12 12 12 14 15 17 19 22 16 13 10 8 9 10 10 11 10 9 9 8 7 8 10 12 13 14 13 13 12 11
11 11 11 12 11 12 14 14 16 20 22 12 10 9 8 9 10 11 12 11 10 9 8 8 8 10 13 15 16 15 13 15 16
9 9 10 11 12 12 13 13 14 18 21 9 8 10 10 10 13 13 12 12 9 8 7 8 10 11 11 13 14 14 14 14 15
8 8 9 10 11 12 11 13 15 16 20 11 6 4 5 12 9 14 12 13 11 8 8 8 9 10 12 13 14 14 14 14 15
8 9 8 8 8 10 11 11 13 10 15 9 3 3 3 7 4 8 17 11 12 8 6 5 7 9 12 13 14 15 16 16 16
9 9 8 7 7 8 10 9 9 9 9 10 6 3 2 7 6 7 10 14 12 12 4 1 2 4 9 12 14 16 16 16 17
8 7 8 7 7 6 7 7 6 6 7 6 6 4 3 1 4 6 7 18 13 17 9 2 1 4 7 10 12 15 16 16 17
7 6 7 7 7 7 7 6 5 5 5 5 5 5 6 2 3 4 10 21 14 19 11 4 2 5 10 13 15 17 17 15 15
Wind_Direction
20 14 8 4 2 360 356 353 343 332 327 324 318 312 308 310 300 300 296 298 302 294 292 282 263 267 264 263 269 265 264 262 257
22 12 8 11 8 6 2 1 359 356 352 344 337 320 315 308 301 294 290 292 292 295 291 286 286 265 265 258 255 260 255 252 251
6 5 5 6 4 357 357 357 357 353 350 347 339 335 331 323 317 309 290 286 289 291 291 292 293 268 261 257 255 256 259 252 248
5 2 357 352 347 347 352 352 353 347 338 333 328 323 321 323 323 323 308 294 305 314 297 285 290 294 273 265 265 265 270 269 259
3 356 353 348 345 346 348 347 343 337 333 330 328 325 320 313 317 321 323 315 315 319 324 293 293 297 293 272 272 277 284 284 275
12 6 3 359 357 354 347 342 340 340 339 341 338 334 334 328 320 320 317 315 322 322 341 323 309 318 320 311 259 337 326 330 343
16 13 10 8 4 359 359 2 2 359 355 351 346 344 340 338 333 324 316 310 311 310 327 352 349 341 337 346 335 311 309 310 313
17 14 13 12 9 12 11 10 8 1 355 351 348 346 343 338 340 340 333 334 325 306 301 310 326 332 332 326 323 318 309 304 304
18 16 17 12 10 10 7 7 2 359 356 352 350 346 342 345 344 348 350 339 335 330 320 309 309 313 323 333 329 321 315 308 306
16 17 16 11 8 5 5 3 3 355 350 349 344 344 352 352 4 8 1 1 6 0 348 342 335 335 347 343 337 335 327 313 312
14 16 15 11 9 6 6 4 0 357 354 351 347 353 4 27 31 27 23 20 12 12 11 11 34 11 350 346 359 29 17 20 5
13 15 13 10 7 4 1 359 360 2 2 2 356 3 53 48 42 39 30 24 28 29 38 36 26 15 1 356 47 42 31 360 334
14 15 13 7 3 1 1 3 5 7 8 18 34 68 67 57 51 45 33 33 36 38 48 56 50 44 40 42 41 38 27 11 359
11 12 12 10 11 6 7 12 10 10 7 25 51 63 69 64 50 45 38 41 46 52 56 53 38 25 32 32 33 30 19 9 3
1 5 7 9 10 12 15 14 19 14 8 22 57 61 67 65 54 43 42 42 50 55 64 53 44 36 40 41 38 30 19 10 4
340 346 355 3 8 11 11 14 17 18 13 24 13 49 73 43 45 39 39 42 43 61 67 57 46 49 41 35 31 28 19 7 2
321 324 329 343 357 7 12 14 10 13 22 24 41 12 329 337 3 30 37 41 37 54 78 58 58 45 37 30 23 21 17 9 2
321 314 313 309 332 354 5 5 9 0 15 31 51 34 315 330 346 9 26 21 17 18 356 28 31 22 359 3 6 11 11 6 1
325 315 311 301 299 319 345 357 357 351 352 6 25 358 309 357 330 331 345 354 18 7 342 281 29 17 8 7 7 357 354 355 355
332 320 313 309 297 292 300 326 337 336 318 337 329 318 312 268 260 301 322 338 350 355 352 146 122 40 21 8 355 346 340 339 342